TimeCDT,TemperatureF,Dew PointF,Humidity,Sea Level PressureIn,VisibilityMPH,Wind Direction,Wind SpeedMPH,Gust SpeedMPH,PrecipitationIn,Events,Conditions,WindDirDegrees,DateUTC
12:15 AM,42.8,42.8,100,29.96,10.0,Calm,Calm,-,N/A,,Clear,0,2013-05-05 05:15:00
12:35 AM,42.6,42.6,100,29.96,10.0,Calm,Calm,-,N/A,,Clear,0,2013-05-05 05:35:00
12:55 AM,43.0,43.0,100,29.95,10.0,Calm,Calm,-,N/A,,Clear,0,2013-05-05 05:55:00
1:15 AM,43.7,43.5,99,29.94,10.0,NNW,4.6,-,N/A,,Scattered Clouds,340,2013-05-05 06:15:00
1:35 AM,43.9,43.7,99,29.93,10.0,Calm,Calm,-,N/A,,Scattered Clouds,0,2013-05-05 06:35:00
1:55 AM,43.7,43.7,100,29.93,10.0,Calm,Calm,-,N/A,,Clear,0,2013-05-05 06:55:00
2:15 AM,43.0,43.0,100,29.93,10.0,Calm,Calm,-,N/A,,Clear,0,2013-05-05 07:15:00
2:35 AM,42.6,42.6,100,29.93,10.0,Calm,Calm,-,N/A,,Clear,0,2013-05-05 07:35:00
2:55 AM,41.9,41.9,100,29.92,10.0,Calm,Calm,-,N/A,,Clear,0,2013-05-05 07:55:00
3:15 AM,43.2,43.2,100,29.91,10.0,NNW,4.6,-,N/A,,Clear,330,2013-05-05 08:15:00
3:35 AM,43.7,43.7,100,29.91,10.0,NNW,6.9,-,N/A,,Clear,340,2013-05-05 08:35:00
3:55 AM,43.5,43.5,100,29.91,10.0,Calm,Calm,-,N/A,,Clear,0,2013-05-05 08:55:00
4:15 AM,43.7,43.7,100,29.91,10.0,NW,3.5,-,N/A,,Clear,320,2013-05-05 09:15:00
4:35 AM,43.9,43.9,100,29.91,10.0,Calm,Calm,-,N/A,,Clear,0,2013-05-05 09:35:00
4:55 AM,43.9,43.9,100,29.91,10.0,Calm,Calm,-,N/A,,Clear,0,2013-05-05 09:55:00
5:15 AM,43.9,43.9,100,29.90,10.0,West,3.5,-,N/A,,Mostly Cloudy,280,2013-05-05 10:15:00
5:35 AM,44.1,44.1,100,29.91,10.0,WNW,4.6,-,N/A,,Overcast,300,2013-05-05 10:35:00
5:55 AM,44.6,44.6,100,29.90,10.0,NW,4.6,-,N/A,,Overcast,310,2013-05-05 10:55:00
6:15 AM,45.1,45.0,99,29.90,10.0,NW,4.6,-,N/A,Rain,Light Rain,320,2013-05-05 11:15:00
6:35 AM,45.5,45.5,100,29.90,7.0,NNW,6.9,-,0.01,Rain,Light Rain,330,2013-05-05 11:35:00
6:55 AM,45.7,45.7,100,29.89,7.0,NNW,6.9,-,0.01,Rain,Rain,330,2013-05-05 11:55:00
7:15 AM,46.2,46.2,100,29.89,7.0,NW,5.8,-,0.01,Rain,Rain,320,2013-05-05 12:15:00
7:35 AM,46.6,46.4,99,29.89,7.0,NW,5.8,-,0.02,Rain,Light Rain,310,2013-05-05 12:35:00
7:55 AM,46.8,46.8,100,29.89,7.0,NNW,4.6,-,0.02,Rain,Light Rain,330,2013-05-05 12:55:00
8:15 AM,47.3,47.3,100,29.89,7.0,NW,6.9,-,0.01,Rain,Light Rain,310,2013-05-05 13:15:00
8:35 AM,47.7,47.7,100,29.89,7.0,NNW,8.1,-,0.01,Rain,Light Rain,330,2013-05-05 13:35:00
8:55 AM,47.8,47.8,100,29.89,10.0,NW,4.6,-,0.02,Rain,Light Rain,310,2013-05-05 13:55:00
9:15 AM,48.2,48.2,100,29.88,10.0,NW,9.2,-,N/A,,Drizzle,320,2013-05-05 14:15:00
9:35 AM,48.7,48.7,100,29.88,7.0,NW,9.2,-,0.02,Rain,Light Rain,310,2013-05-05 14:35:00
9:55 AM,49.3,49.3,100,29.88,10.0,NNW,8.1,-,0.02,Rain,Light Rain,330,2013-05-05 14:55:00
10:15 AM,49.3,49.1,99,29.88,7.0,NW,8.1,-,0.01,Rain,Light Rain,310,2013-05-05 15:15:00
10:35 AM,49.6,49.6,100,29.88,7.0,WNW,6.9,-,0.03,Rain,Rain,300,2013-05-05 15:35:00
10:55 AM,50.2,50.0,99,29.89,10.0,Calm,Calm,-,0.03,Rain,Light Rain,0,2013-05-05 15:55:00
11:15 AM,50.4,50.0,99,29.89,10.0,WNW,3.5,-,0.01,Rain,Light Rain,300,2013-05-05 16:15:00
11:35 AM,51.1,50.4,97,29.89,10.0,Calm,Calm,-,0.01,,Light Drizzle,0,2013-05-05 16:35:00
11:55 AM,52.7,51.3,95,29.88,10.0,WSW,6.9,-,0.01,,Overcast,250,2013-05-05 16:55:00
12:15 PM,53.2,51.1,92,29.88,10.0,West,5.8,-,N/A,,Overcast,280,2013-05-05 17:15:00
12:35 PM,53.4,51.6,94,29.87,10.0,WSW,5.8,-,N/A,,Overcast,250,2013-05-05 17:35:00
12:55 PM,53.2,51.6,94,29.86,10.0,WSW,5.8,-,N/A,,Overcast,240,2013-05-05 17:55:00
1:15 PM,53.6,51.8,94,29.86,10.0,West,6.9,-,N/A,,Overcast,260,2013-05-05 18:15:00
1:35 PM,53.8,52.2,94,29.86,10.0,West,3.5,-,N/A,,Overcast,260,2013-05-05 18:35:00
1:55 PM,54.0,52.3,94,29.87,10.0,Calm,Calm,-,N/A,,Overcast,0,2013-05-05 18:55:00
2:15 PM,54.5,52.2,92,29.87,10.0,Calm,Calm,-,N/A,,Overcast,0,2013-05-05 19:15:00
2:35 PM,54.5,52.2,92,29.86,10.0,WSW,3.5,-,N/A,,Overcast,250,2013-05-05 19:35:00
2:55 PM,55.8,52.7,89,29.86,10.0,SSW,3.5,-,N/A,,Overcast,210,2013-05-05 19:55:00
3:15 PM,56.5,52.3,86,29.86,10.0,Calm,Calm,-,N/A,,Overcast,0,2013-05-05 20:15:00
3:35 PM,56.8,52.0,84,29.85,10.0,Calm,Calm,-,N/A,,Overcast,0,2013-05-05 20:35:00
3:55 PM,57.2,52.3,84,29.85,10.0,Calm,Calm,-,N/A,,Overcast,0,2013-05-05 20:55:00
4:15 PM,57.2,52.7,85,29.85,10.0,Calm,Calm,-,N/A,,Overcast,0,2013-05-05 21:15:00
4:35 PM,57.0,52.7,85,29.85,10.0,Calm,Calm,-,N/A,Rain,Light Rain,0,2013-05-05 21:35:00
4:55 PM,57.4,53.4,87,29.85,10.0,Calm,Calm,-,N/A,,Overcast,0,2013-05-05 21:55:00
5:15 PM,57.4,53.2,86,29.85,10.0,Calm,Calm,-,N/A,,Overcast,0,2013-05-05 22:15:00
5:35 PM,57.4,52.9,85,29.85,10.0,Calm,Calm,-,N/A,,Overcast,0,2013-05-05 22:35:00
5:55 PM,57.4,51.3,80,29.86,10.0,Calm,Calm,-,N/A,,Overcast,0,2013-05-05 22:55:00
6:15 PM,57.6,51.8,81,29.86,10.0,WNW,3.5,-,N/A,,Overcast,290,2013-05-05 23:15:00
6:35 PM,58.1,52.2,81,29.85,10.0,West,4.6,-,N/A,,Overcast,260,2013-05-05 23:35:00
6:55 PM,58.1,52.5,82,29.86,10.0,WNW,3.5,-,N/A,,Overcast,300,2013-05-05 23:55:00
7:15 PM,57.4,52.5,84,29.86,10.0,WNW,3.5,-,N/A,,Overcast,290,2013-05-06 00:15:00
7:35 PM,56.8,52.7,86,29.86,10.0,West,3.5,-,N/A,,Overcast,280,2013-05-06 00:35:00
7:55 PM,56.5,53.1,88,29.86,10.0,WNW,5.8,-,N/A,,Overcast,300,2013-05-06 00:55:00
8:15 PM,56.3,54.3,93,29.86,10.0,WNW,3.5,-,N/A,,Overcast,300,2013-05-06 01:15:00
8:35 PM,55.9,54.7,96,29.86,10.0,Calm,Calm,-,N/A,,Overcast,0,2013-05-06 01:35:00
8:55 PM,55.4,54.5,97,29.86,10.0,Calm,Calm,-,N/A,,Overcast,0,2013-05-06 01:55:00
9:15 PM,55.4,54.9,98,29.87,10.0,Calm,Calm,-,N/A,,Overcast,0,2013-05-06 02:15:00
9:35 PM,54.9,54.5,99,29.87,10.0,Calm,Calm,-,N/A,,Overcast,0,2013-05-06 02:35:00
9:55 PM,55.0,55.0,100,29.87,10.0,Calm,Calm,-,N/A,,Overcast,0,2013-05-06 02:55:00
10:15 PM,55.0,55.0,100,29.87,10.0,WNW,4.6,-,N/A,,Overcast,290,2013-05-06 03:15:00
10:35 PM,55.4,55.4,100,29.87,7.0,NW,4.6,-,N/A,Rain,Rain,310,2013-05-06 03:35:00
10:55 PM,55.4,55.4,100,29.86,4.0,Calm,Calm,-,N/A,,Heavy Drizzle,0,2013-05-06 03:55:00
11:15 PM,55.4,55.4,100,29.85,10.0,NW,4.6,-,N/A,,Overcast,310,2013-05-06 04:15:00
11:35 PM,55.4,55.4,100,29.84,10.0,NW,5.8,-,N/A,,Overcast,310,2013-05-06 04:35:00
11:55 PM,55.6,55.6,100,29.85,10.0,North,5.8,-,N/A,,Overcast,360,2013-05-06 04:55:00